Cosmos 2150 Rocket - Orbit

View from above orbital plane
View from above orbital plane
View from above satellite
View from above satellite

Ground track
Ground track

The orbit data is extracted from the following two-line orbital elements,

1 21419U 91041B   13142.19564161  .00000071  00000-0  34627-4 0  2601
2 21419 074.0395 138.3788 0040235 067.3232 010.9042 14.33345120147376
Epoch (UTC): 22 May 2013 04:41:43
Eccentricity: 0.0040235
inclination: 74.0395°
perigee height: 752 km
apogee height: 809 km
right ascension of ascending node: 138.3788°
argument of perigee: 67.3232°
revolutions per day: 14.33345120
mean anomaly at epoch: 10.9042°
orbit number at epoch: 14737

The dashed part of the orbit path shows where the satellite is in the earth's shadow,  

Developed and maintained by Chris Peat, Heavens-Above GmbH. Please read the updated FAQ before sending e-mail. Imprint. DLR